Satellite-Ground Cal/Val Site Overpasses Predictions

Prediction of Satellite NPP Overpassing Cal/Val Site: Antarctic Dome C

Ground Cal/Val Site Location: Latitude: -75.10, Longitude: 123.35; Satellite-Ground Site NADIR distance within 100 km.

Table of predicted overpasses for the next 14.0 days since TLE Epoch: 5/25/2015
Interval Starting Time Ending Time Minimum Distance Time Minimum Distance (km)
1 05/26/2015 15:12:21 05/26/2015 15:12:32 05/26/2015 15:12:26 91.97
2 05/27/2015 14:53:21 05/27/2015 14:53:50 05/27/2015 14:53:36 19.31
3 05/29/2015 07:36:10 05/29/2015 07:36:39 05/29/2015 07:36:25 3.22
4 06/01/2015 14:59:37 06/01/2015 15:00:06 06/01/2015 14:59:51 17.62
5 06/02/2015 14:40:55 06/02/2015 14:41:08 06/02/2015 14:41:01 89.40
6 06/03/2015 07:42:27 06/03/2015 07:42:54 06/03/2015 07:42:40 39.12
7 06/04/2015 07:23:40 06/04/2015 07:24:01 06/04/2015 07:23:51 70.90
8 06/06/2015 15:05:54 06/06/2015 15:06:18 06/06/2015 15:06:06 54.90
9 06/07/2015 14:47:04 06/07/2015 14:47:29 06/07/2015 14:47:16 54.26
